Regional Weather Roundup
Issued by NWS

Home | Current Version | Previous Version | Text Only | Print | Product List | Glossary Off
Versions: 1 2 3 4 5 6 7 8 9 10 11 12 13 14 15 16 17 18 19 20 21 22 23 24 25 26 27 28 29 30 31 32 33 34 35 36 37 38 39 40 41 42 43 44 45 46 47 48 49 50

000
ASUS43 KFSD 182010
RWRSD

WEATHER ROUNDUP FOR SOUTH DAKOTA
NATIONAL WEATHER SERVICE SIOUX FALLS SD
200 PM CST SUN FEB 18 2018

NOTE: "FAIR" INDICATES FEW OR NO CLOUDS BELOW 12,000 FEET WITH NO
SIGNIFICANT WEATHER AND/OR OBSTRUCTIONS TO VISIBILITY.


SDZ001>005-009-010-012>017-182100-
NORTHWEST AND NORTH CENTRAL SOUTH DAKOTA

CITY           SKY/WX    TMP DP  RH WIND       PRES   REMARKS
BUFFALO          N/A     10   3  73 NW18      29.71R WCI  -8
FAITH            N/A     11   9  92 N25       29.69R WCI -10
MOBRIDGE       LGT SNOW  19  12  74 N21       29.69R WCI   3
$$

SDZ012>016-024>037-041>051-057-063-072>074-182100-
SOUTHWEST AND SOUTH CENTRAL SOUTH DAKOTA

CITY           SKY/WX    TMP DP  RH WIND       PRES   REMARKS
RAPID CTY ARPT SNOW      16  12  84 N38G52    29.63R VSB 1/2 WCI  -6
PIERRE         CLOUDY    23  19  85 N21       29.66R WCI   8
CUSTER         CLOUDY    29  22  75 S9        29.48R WCI  20
ELLSWORTH AFB  BLWGSNOW  15  13  92 N29G40    29.63  VSB 1/4 WCI  -5
PHILIP         CLOUDY    20  16  84 N22       29.69R WCI   3
PINE RIDGE     CLOUDY    27  21  78 N20       29.62R WCI  13
SPEARFISH      LGT SNOW  12   9  85 NW14G23   29.70R WCI  -3
WINNER         MOCLDY    32  25  75 NW28G33   29.61R WCI  18
$$

SDZ004>011-016>023-039-040-182100-
NORTHEAST SOUTH DAKOTA

CITY           SKY/WX    TMP DP  RH WIND       PRES   REMARKS
ABERDEEN       CLOUDY    23  16  74 N23G30    29.65R WCI   7
WATERTOWN      CLOUDY    39  26  59 NW12      29.50R
BROOKINGS      CLOUDY    43  29  57 SW14      29.50S
SISSETON         N/A     27  21  78 N23       29.60R WCI  12
$$

SDZ017-020-022-023-036>040-048>070-182100-
SOUTHEAST SOUTH DAKOTA

CITY           SKY/WX    TMP DP  RH WIND       PRES   REMARKS
SIOUX FALLS    CLOUDY    43  29  57 S17G25    29.53F
HURON          CLOUDY    33  26  75 NW21      29.56R WCI  21
CHAMBERLAIN    CLOUDY    31  27  86 W14G20    29.61R WCI  21
MITCHELL       CLOUDY    38  29  70 NW14      29.55R
YANKTON        CLOUDY    48  29  47 S13G18    29.53F
$$

ABBREVIATIONS USED IN REMARKS
   TC - TEMPERATURE IN CELSIUS
  WCI - WIND CHILL INDEX
   HX - HEAT INDEX
  VSB - VISIBILITY





USA.gov is the U.S. government's official web portal to all federal, state and local government web resources and services.